Location: Mohawk View
(42.7837°N, 73.7885°W)
Time: 13:28:30
(UTC+00:00)

Meteor 1-29 - Pass Details

Date: 17 June 2021
Orbit: 434 x 457 km, 97.7° (Epoch: 30 July)

Event Time Altitude Azimuth Distance (km) Brightness Sun altitude
Rises 07:49:26 0° 1° (N) 2,483 7.5 -12.7°
Reaches altitude 10° 07:51:41 10° 348° (NNW) 1,601 6.2 -12.5°
Maximum altitude 07:54:36 26° 290° (WNW) 919 4.3 -12.1°
Enters shadow 07:56:21 17° 245° (WSW) 1,205 4.5 -11.9°
